Voltar ao catálogo

FENGYUN 1C DEB

AtivoSSO
NORAD 31664·DEBRIS·🇨🇳 China

Lançado May 10, 1999 de Taiyuan Satellite Launch Center

Loading…

Próximas Passagens (próximas 24 horas)

TLE

AtualizadoSource: Space-Track

Época: Sep 11, 2026, 09:56 UTC

1 31664U 99025CBW 26254.41447536  .00000440  00000-0  25073-3 0  9996
2 31664  98.7717 244.1436 0125369 105.9316 255.5710 14.10661025998452

Acompanhe FENGYUN 1C DEB em tempo real com AllMySat

Download on the App Store